Location: New York
(40.7127°N, 74.0060°W)
Time: 20:07:48
(UTC-04:00)

PCSat - Visible Passes

Search period start: 18 April 2024 00:00
Search period end: 28 April 2024 00:00
Orbit: 783 x 792 km, 67.0° (Epoch: 18 April)

Date Brightness Start Highest point End Pass type
(mag) Time Alt. Az. Time Alt. Az. Time Alt. Az.
18 Apr 12.6 04:09:32 10° N 04:12:20 14° NE 04:15:07 10° ENE visible
18 Apr 9.5 20:31:44 10° SSW 20:37:06 74° ESE 20:42:31 10° NNE visible
18 Apr 12.2 22:17:14 10° W 22:21:02 19° NW 22:24:50 10° N visible
19 Apr 12.9 03:39:06 10° NNE 03:40:22 11° NE 03:41:39 10° NE visible
19 Apr 10.5 05:19:38 10° NNW 05:24:58 54° ENE 05:30:16 10° SE visible
19 Apr 9.7 20:00:21 10° S 20:05:34 52° ESE 20:10:48 10° NE visible
19 Apr 11.9 21:44:48 10° WSW 21:49:12 25° NW 21:53:37 10° N visible
20 Apr 11.1 04:48:11 10° NNW 04:53:17 40° NE 04:58:20 10° ESE visible
20 Apr 11.4 21:12:35 10° WSW 21:17:24 32° NW 21:22:17 10° NNE visible
21 Apr 11.6 04:16:46 10° N 04:21:32 30° NE 04:26:15 10° ESE visible
21 Apr 10.9 20:40:33 10° SW 20:45:40 44° NW 20:50:51 10° NNE visible
22 Apr 12.0 03:45:27 10° N 03:49:43 23° NE 03:53:58 10° E visible
22 Apr 9.6 05:28:07 10° NW 05:33:27 58° WSW 05:38:43 10° SSE visible
22 Apr 10.3 20:08:40 10° SW 20:14:00 60° WNW 20:19:22 10° NNE visible
22 Apr 12.8 21:56:39 10° WNW 21:58:30 12° NW 22:00:21 10° NNW visible
23 Apr 12.3 03:14:16 10° N 03:17:52 18° NE 03:21:28 10° E visible
23 Apr 9.5 04:56:27 10° NNW 05:01:53 81° WSW 05:07:17 10° SSE visible
23 Apr 12.6 21:23:29 10° WNW 21:26:33 15° NW 21:29:38 10° N visible
24 Apr 12.6 02:43:16 10° N 02:45:58 14° NE 02:48:39 10° ENE visible
24 Apr 9.8 04:24:50 10° NNW 04:30:17 73° ENE 04:35:40 10° SE visible
24 Apr 12.4 20:50:48 10° W 20:54:39 19° NW 20:58:33 10° N visible
25 Apr 12.8 02:12:57 10° NNE 02:13:59 10° NE 02:15:02 10° NE visible
25 Apr 10.3 03:53:18 10° NNW 03:58:37 53° ENE 04:03:53 10° SE visible
25 Apr 12.1 20:18:23 10° WSW 20:22:49 25° NW 20:27:17 10° N visible
26 Apr 10.9 03:21:50 10° NNW 03:26:55 39° NE 03:31:56 10° ESE visible
26 Apr 10.3 05:05:26 10° NW 05:10:06 30° WSW 05:14:43 10° SSW visible
27 Apr 11.4 02:50:26 10° N 02:55:09 29° NE 02:59:50 10° ESE visible
27 Apr 9.9 04:33:32 10° NW 04:38:36 42° WSW 04:43:39 10° S visible
